| time (UTC) | temp C | wind direction | speed KPH | gust KPH | rain 1hr cm | rain 24hr cm | rain mn cm | humidity % | barometer mb |
| 20260506234137 | 8 | 296 | 1.6 | 4.8 | 0.00 | 0.00 | 0.00 | 84 | 1014.6 |
| 20260506233637 | 8 | 307 | 3.2 | 6.4 | 0.00 | 0.00 | 0.00 | 84 | 1014.6 |
| 20260506233137 | 8 | 295 | 3.2 | 4.8 | 0.00 | 0.00 | 0.00 | 83 | 1014.6 |
| 20260506232637 | 8 | 300 | 0.0 | 4.8 | 0.00 | 0.00 | 0.00 | 83 | 1014.4 |
| 20260506232137 | 9 | 320 | 3.2 | 4.8 | 0.00 | 0.00 | 0.00 | 83 | 1014.5 |
| 20260506231637 | 9 | 324 | 6.4 | 9.7 | 0.00 | 0.00 | 0.00 | 82 | 1014.5 |
| 20260506231137 | 9 | 328 | 4.8 | 6.4 | 0.00 | 0.00 | 0.00 | 82 | 1014.5 |
| 20260506230637 | 9 | 309 | 4.8 | 8.0 | 0.00 | 0.00 | 0.00 | 81 | 1014.5 |
| 20260506230157 | 9 | 306 | 3.2 | 8.0 | 0.00 | 0.00 | 0.00 | 81 | 1014.4 |
| 20260506225637 | 9 | 300 | 3.2 | 8.0 | 0.00 | 0.00 | 0.00 | 80 | 1014.5 |
| 20260506225157 | 9 | 309 | 4.8 | 11.3 | 0.00 | 0.00 | 0.00 | 80 | 1014.4 |
| 20260506224637 | 9 | 312 | 4.8 | 6.4 | 0.00 | 0.00 | 0.00 | 79 | 1014.4 |
| 20260506224137 | 10 | 296 | 4.8 | 8.0 | 0.00 | 0.00 | 0.00 | 79 | 1014.4 |
| 20260506223737 | 10 | 346 | 3.2 | 11.3 | 0.00 | 0.00 | 0.00 | 78 | 1014.4 |
| 20260506223137 | 10 | 296 | 4.8 | 8.0 | 0.00 | 0.00 | 0.00 | 78 | 1014.3 |
| 20260506222637 | 10 | 313 | 8.0 | 12.9 | 0.00 | 0.00 | 0.00 | 77 | 1014.3 |
| 20260506222138 | 10 | 313 | 3.2 | 9.7 | 0.00 | 0.00 | 0.00 | 76 | 1014.3 |
| 20260506221638 | 10 | 313 | 3.2 | 4.8 | 0.00 | 0.00 | 0.00 | 76 | 1014.3 |
| 20260506221157 | 10 | 322 | 4.8 | 9.7 | 0.00 | 0.00 | 0.00 | 75 | 1014.3 |
| 20260506220637 | 10 | 339 | 4.8 | 11.3 | 0.00 | 0.00 | 0.00 | 75 | 1014.2 |
| 20260506220157 | 10 | 293 | 4.8 | 8.0 | 0.00 | 0.00 | 0.00 | 74 | 1014.2 |
| 20260506215637 | 10 | 326 | 4.8 | 4.8 | 0.00 | 0.00 | 0.00 | 74 | 1014.1 |
| 20260506215137 | 10 | 308 | 6.4 | 9.7 | 0.00 | 0.00 | 0.00 | 73 | 1014.1 |
| 20260506214657 | 10 | 304 | 4.8 | 6.4 | 0.00 | 0.00 | 0.00 | 72 | 1014.1 |
| 20260506214137 | 11 | 332 | 3.2 | 8.0 | 0.00 | 0.00 | 0.00 | 71 | 1014.0 |
| 20260506213637 | 11 | 314 | 4.8 | 12.9 | 0.00 | 0.00 | 0.00 | 71 | 1014.0 |
| 20260506213137 | 11 | 351 | 3.2 | 6.4 | 0.00 | 0.00 | 0.00 | 70 | 1014.0 |
| 20260506212637 | 11 | 312 | 8.0 | 11.3 | 0.00 | 0.00 | 0.00 | 68 | 1013.9 |
| 20260506212137 | 11 | 320 | 8.0 | 11.3 | 0.00 | 0.00 | 0.00 | 67 | 1013.9 |
| 20260506211637 | 11 | 313 | 4.8 | 11.3 | 0.00 | 0.00 | 0.00 | 66 | 1013.9 |
| 20260506211157 | 11 | 318 | 6.4 | 12.9 | 0.00 | 0.00 | 0.00 | 65 | 1013.8 |
| 20260506210637 | 11 | 342 | 6.4 | 11.3 | 0.00 | 0.00 | 0.00 | 64 | 1013.7 |
| 20260506210137 | 11 | 298 | 1.6 | 8.0 | 0.00 | 0.00 | 0.00 | 64 | 1013.7 |
| 20260506205637 | 12 | 275 | 3.2 | 11.3 | 0.00 | 0.00 | 0.00 | 64 | 1013.7 |
| 20260506205137 | 12 | 293 | 4.8 | 12.9 | 0.00 | 0.00 | 0.00 | 64 | 1013.7 |
| 20260506204638 | 12 | 300 | 8.0 | 9.7 | 0.00 | 0.00 | 0.00 | 64 | 1013.6 |
| 20260506204158 | 12 | 313 | 4.8 | 4.8 | 0.00 | 0.00 | 0.00 | 64 | 1013.5 |
| 20260506203637 | 12 | 314 | 6.4 | 6.4 | 0.00 | 0.00 | 0.00 | 64 | 1013.5 |
| 20260506203137 | 12 | 318 | 4.8 | 9.7 | 0.00 | 0.00 | 0.00 | 64 | 1013.5 |
| 20260506202657 | 12 | 325 | 8.0 | 12.9 | 0.00 | 0.00 | 0.00 | 63 | 1013.4 |
| 20260506202137 | 12 | 298 | 9.7 | 12.9 | 0.00 | 0.00 | 0.00 | 64 | 1013.5 |
| 20260506201657 | 12 | 304 | 3.2 | 6.4 | 0.00 | 0.00 | 0.00 | 64 | 1013.4 |
| 20260506201137 | 12 | 297 | 6.4 | 8.0 | 0.00 | 0.00 | 0.00 | 63 | 1013.4 |
| 20260506200637 | 12 | 298 | 6.4 | 11.3 | 0.00 | 0.00 | 0.00 | 64 | 1013.3 |
| 20260506200138 | 12 | 316 | 1.6 | 6.4 | 0.00 | 0.00 | 0.00 | 63 | 1013.3 |
| 20260506195638 | 12 | 296 | 3.2 | 8.0 | 0.00 | 0.00 | 0.00 | 63 | 1013.2 |
| 20260506195137 | 12 | 318 | 9.7 | 12.9 | 0.00 | 0.00 | 0.00 | 63 | 1013.2 |
| 20260506194637 | 12 | 276 | 4.8 | 11.3 | 0.00 | 0.00 | 0.00 | 62 | 1013.2 |
| 20260506194137 | 12 | 187 | 0.0 | 4.8 | 0.00 | 0.00 | 0.00 | 62 | 1013.1 |
| 20260506193637 | 12 | 148 | 1.6 | 1.6 | 0.00 | 0.00 | 0.00 | 61 | 1013.1 |
| 20260506193217 | 13 | 290 | 3.2 | 3.2 | 0.00 | 0.00 | 0.00 | 61 | 1012.9 |
| 20260506192637 | 12 | 305 | 3.2 | 6.4 | 0.00 | 0.00 | 0.00 | 61 | 1012.9 |
| 20260506192137 | 13 | 0.0 | 3.2 | 0.00 | 0.00 | 0.00 | 61 | 1012.9 | |
| 20260506191638 | 12 | 269 | 3.2 | 6.4 | 0.00 | 0.00 | 0.00 | 61 | 1012.9 |
| 20260506191137 | 13 | 292 | 1.6 | 4.8 | 0.00 | 0.00 | 0.00 | 60 | 1012.8 |
| 20260506190640 | 13 | 295 | 3.2 | 11.3 | 0.00 | 0.00 | 0.00 | 60 | 1012.7 |
| 20260506190137 | 13 | 131 | 1.6 | 3.2 | 0.00 | 0.00 | 0.00 | 60 | 1012.6 |
| 20260506185638 | 13 | 105 | 1.6 | 8.0 | 0.00 | 0.00 | 0.00 | 60 | 1012.6 |
| 20260506185158 | 13 | 101 | 4.8 | 8.0 | 0.00 | 0.00 | 0.00 | 59 | 1012.5 |
| 20260506184637 | 13 | 294 | 3.2 | 4.8 | 0.00 | 0.00 | 0.00 | 59 | 1012.4 |
| 20260506184217 | 13 | 295 | 6.4 | 9.7 | 0.00 | 0.00 | 0.00 | 59 | 1012.3 |
| 20260506183637 | 13 | 272 | 3.2 | 9.7 | 0.00 | 0.00 | 0.00 | 58 | 1012.3 |
| 20260506183138 | 13 | 286 | 6.4 | 11.3 | 0.00 | 0.00 | 0.00 | 57 | 1012.2 |
| 20260506182638 | 13 | 296 | 4.8 | 11.3 | 0.00 | 0.00 | 0.00 | 56 | 1012.1 |
| 20260506182137 | 13 | 344 | 3.2 | 8.0 | 0.00 | 0.00 | 0.00 | 55 | 1012.1 |
| 20260506181717 | 13 | 289 | 3.2 | 6.4 | 0.00 | 0.00 | 0.00 | 54 | 1012.0 |
| 20260506181137 | 13 | 323 | 1.6 | 11.3 | 0.00 | 0.00 | 0.00 | 53 | 1012.0 |
| 20260506180627 | 13 | 309 | 1.6 | 3.2 | 0.00 | 0.00 | 0.00 | 52 | 1011.9 |
| 20260506180138 | 13 | 226 | 3.2 | 4.8 | 0.00 | 0.00 | 0.00 | 52 | 1011.9 |
| 20260506175637 | 13 | 314 | 8.0 | 11.3 | 0.00 | 0.00 | 0.00 | 51 | 1011.9 |
| 20260506175158 | 13 | 275 | 3.2 | 8.0 | 0.00 | 0.00 | 0.00 | 51 | 1011.8 |
| 20260506174638 | 13 | 317 | 3.2 | 11.3 | 0.00 | 0.00 | 0.00 | 51 | 1011.7 |
| 20260506174138 | 13 | 105 | 4.8 | 8.0 | 0.00 | 0.00 | 0.00 | 50 | 1011.6 |
| 20260506173637 | 13 | 276 | 3.2 | 9.7 | 0.00 | 0.00 | 0.00 | 50 | 1011.5 |
| 20260506173140 | 13 | 315 | 4.8 | 8.0 | 0.00 | 0.00 | 0.00 | 50 | 1011.5 |
| 20260506172638 | 13 | 354 | 6.4 | 14.5 | 0.00 | 0.00 | 0.00 | 49 | 1011.4 |
| 20260506172138 | 13 | 288 | 1.6 | 8.0 | 0.00 | 0.00 | 0.00 | 48 | 1011.4 |
| 20260506171638 | 13 | 348 | 3.2 | 11.3 | 0.00 | 0.00 | 0.00 | 48 | 1011.4 |
| 20260506171137 | 13 | 280 | 4.8 | 8.0 | 0.00 | 0.00 | 0.00 | 48 | 1011.3 |
| 20260506170658 | 14 | 220 | 1.6 | 1.6 | 0.00 | 0.00 | 0.00 | 47 | 1011.3 |
| 20260506170137 | 14 | 0.0 | 3.2 | 0.00 | 0.00 | 0.00 | 48 | 1011.3 | |
| 20260506165638 | 14 | 340 | 0.0 | 3.2 | 0.00 | 0.00 | 0.00 | 48 | 1011.3 |
| 20260506165217 | 14 | 152 | 1.6 | 4.8 | 0.00 | 0.00 | 0.00 | 50 | 1011.2 |
| 20260506164637 | 14 | 160 | 1.6 | 6.4 | 0.00 | 0.00 | 0.00 | 49 | 1011.2 |
| 20260506164137 | 15 | 143 | 3.2 | 6.4 | 0.00 | 0.00 | 0.00 | 50 | 1011.3 |
| 20260506163638 | 15 | 145 | 0.0 | 3.2 | 0.00 | 0.00 | 0.00 | 48 | 1011.2 |
| 20260506163138 | 15 | 0.0 | 4.8 | 0.00 | 0.00 | 0.00 | 47 | 1011.2 | |
| 20260506162637 | 15 | 73 | 3.2 | 6.4 | 0.00 | 0.00 | 0.00 | 47 | 1011.2 |
| 20260506162137 | 15 | 257 | 1.6 | 4.8 | 0.00 | 0.00 | 0.00 | 47 | 1011.2 |
| 20260506161638 | 15 | 177 | 3.2 | 6.4 | 0.00 | 0.00 | 0.00 | 46 | 1011.2 |
| 20260506161138 | 15 | 286 | 1.6 | 3.2 | 0.00 | 0.00 | 0.00 | 46 | 1011.2 |
| 20260506160638 | 15 | 224 | 0.0 | 3.2 | 0.00 | 0.00 | 0.00 | 46 | 1011.1 |
| 20260506160138 | 15 | 247 | 1.6 | 6.4 | 0.00 | 0.00 | 0.00 | 45 | 1011.1 |
| 20260506155640 | 15 | 112 | 1.6 | 3.2 | 0.00 | 0.00 | 0.00 | 46 | 1011.1 |
| 20260506155137 | 15 | 0.0 | 3.2 | 0.00 | 0.00 | 0.00 | 46 | 1011.2 | |
| 20260506154658 | 15 | 235 | 4.8 | 14.5 | 0.00 | 0.00 | 0.00 | 45 | 1011.1 |
| 20260506154137 | 15 | 197 | 4.8 | 8.0 | 0.00 | 0.00 | 0.00 | 44 | 1011.1 |
| 20260506153638 | 15 | 277 | 6.4 | 9.7 | 0.00 | 0.00 | 0.00 | 44 | 1011.1 |
| 20260506153138 | 15 | 287 | 4.8 | 8.0 | 0.00 | 0.00 | 0.00 | 43 | 1011.0 |
| 20260506152658 | 15 | 252 | 4.8 | 9.7 | 0.00 | 0.00 | 0.00 | 42 | 1011.1 |
| 20260506152138 | 15 | 275 | 6.4 | 11.3 | 0.00 | 0.00 | 0.00 | 42 | 1011.1 |
| 20260506151638 | 15 | 137 | 1.6 | 6.4 | 0.00 | 0.00 | 0.00 | 41 | 1011.0 |
| 20260506151137 | 15 | 293 | 6.4 | 12.9 | 0.00 | 0.00 | 0.00 | 41 | 1011.1 |
| 20260506150638 | 16 | 298 | 4.8 | 11.3 | 0.00 | 0.00 | 0.00 | 40 | 1011.0 |
| 20260506150138 | 15 | 359 | 4.8 | 16.1 | 0.00 | 0.00 | 0.00 | 40 | 1011.0 |
| 20260506145638 | 16 | 291 | 4.8 | 12.9 | 0.00 | 0.00 | 0.00 | 40 | 1011.0 |
| 20260506145137 | 16 | 260 | 6.4 | 9.7 | 0.00 | 0.00 | 0.00 | 39 | 1011.0 |
| 20260506144738 | 16 | 220 | 4.8 | 16.1 | 0.00 | 0.00 | 0.00 | 38 | 1011.0 |
| 20260506144138 | 16 | 294 | 3.2 | 11.3 | 0.00 | 0.00 | 0.00 | 40 | 1011.1 |
| 20260506143718 | 16 | 308 | 8.0 | 22.5 | 0.00 | 0.00 | 0.00 | 40 | 1011.0 |
| 20260506143157 | 16 | 242 | 6.4 | 9.7 | 0.00 | 0.00 | 0.00 | 40 | 1011.0 |
| 20260506142638 | 16 | 180 | 4.8 | 8.0 | 0.00 | 0.00 | 0.00 | 41 | 1011.0 |
| 20260506142141 | 16 | 200 | 6.4 | 9.7 | 0.00 | 0.00 | 0.00 | 41 | 1011.1 |
| 20260506141638 | 16 | 214 | 6.4 | 11.3 | 0.00 | 0.00 | 0.00 | 41 | 1011.0 |
| 20260506141138 | 15 | 163 | 12.9 | 17.7 | 0.00 | 0.00 | 0.00 | 42 | 1011.1 |
| 20260506140658 | 15 | 283 | 4.8 | 8.0 | 0.00 | 0.00 | 0.00 | 42 | 1011.0 |
| 20260506140138 | 16 | 308 | 4.8 | 8.0 | 0.00 | 0.00 | 0.00 | 42 | 1011.1 |
| 20260506135638 | 15 | 352 | 8.0 | 14.5 | 0.00 | 0.00 | 0.00 | 43 | 1010.9 |
| 20260506135138 | 15 | 40 | 3.2 | 16.1 | 0.00 | 0.00 | 0.00 | 43 | 1011.0 |
| 20260506134639 | 16 | 281 | 4.8 | 14.5 | 0.00 | 0.00 | 0.00 | 43 | 1010.9 |
| 20260506134158 | 16 | 293 | 3.2 | 6.4 | 0.00 | 0.00 | 0.00 | 41 | 1010.9 |
| 20260506133638 | 16 | 54 | 4.8 | 8.0 | 0.00 | 0.00 | 0.00 | 41 | 1010.8 |
| 20260506133138 | 16 | 157 | 4.8 | 16.1 | 0.00 | 0.00 | 0.00 | 40 | 1010.9 |
| 20260506132658 | 16 | 95 | 8.0 | 11.3 | 0.00 | 0.00 | 0.00 | 40 | 1010.9 |
| 20260506132138 | 16 | 329 | 4.8 | 12.9 | 0.00 | 0.00 | 0.00 | 42 | 1010.9 |
| 20260506131638 | 16 | 143 | 4.8 | 9.7 | 0.00 | 0.00 | 0.00 | 40 | 1010.8 |
| 20260506131138 | 15 | 312 | 9.7 | 16.1 | 0.00 | 0.00 | 0.00 | 42 | 1010.9 |
| 20260506130638 | 15 | 294 | 8.0 | 19.3 | 0.00 | 0.00 | 0.00 | 44 | 1010.8 |
| 20260506130138 | 16 | 290 | 6.4 | 12.9 | 0.00 | 0.00 | 0.00 | 44 | 1010.8 |
| 20260506125638 | 15 | 119 | 6.4 | 16.1 | 0.00 | 0.00 | 0.00 | 44 | 1010.8 |
| 20260506125159 | 15 | 309 | 9.7 | 11.3 | 0.00 | 0.00 | 0.00 | 44 | 1010.7 |
| 20260506124641 | 16 | 290 | 4.8 | 11.3 | 0.00 | 0.00 | 0.00 | 42 | 1010.7 |
| 20260506124138 | 16 | 274 | 3.2 | 9.7 | 0.00 | 0.00 | 0.00 | 45 | 1010.8 |
| 20260506123639 | 15 | 73 | 3.2 | 11.3 | 0.00 | 0.00 | 0.00 | 49 | 1010.8 |
| 20260506123138 | 15 | 291 | 4.8 | 8.0 | 0.00 | 0.00 | 0.00 | 52 | 1010.8 |
| 20260506122638 | 14 | 302 | 17.7 | 20.9 | 0.00 | 0.00 | 0.00 | 52 | 1010.7 |
| 20260506122138 | 15 | 272 | 8.0 | 12.9 | 0.00 | 0.00 | 0.00 | 48 | 1010.7 |
| 20260506121638 | 15 | 231 | 4.8 | 6.4 | 0.00 | 0.00 | 0.00 | 49 | 1010.6 |
| 20260506121138 | 15 | 348 | 3.2 | 14.5 | 0.00 | 0.00 | 0.00 | 48 | 1010.7 |
| 20260506120638 | 15 | 295 | 9.7 | 12.9 | 0.00 | 0.00 | 0.00 | 48 | 1010.7 |
| 20260506120138 | 15 | 344 | 9.7 | 11.3 | 0.00 | 0.00 | 0.00 | 46 | 1010.5 |
| 20260506115659 | 15 | 299 | 8.0 | 17.7 | 0.00 | 0.00 | 0.00 | 45 | 1010.6 |
| 20260506115138 | 15 | 257 | 3.2 | 6.4 | 0.00 | 0.00 | 0.00 | 46 | 1010.5 |
| 20260506114638 | 15 | 301 | 12.9 | 14.5 | 0.00 | 0.00 | 0.00 | 45 | 1010.5 |
| 20260506114138 | 15 | 323 | 12.9 | 22.5 | 0.00 | 0.00 | 0.00 | 46 | 1010.5 |
| 20260506113638 | 15 | 113 | 9.7 | 9.7 | 0.00 | 0.00 | 0.00 | 53 | 1010.6 |
| 20260506113138 | 15 | 295 | 8.0 | 11.3 | 0.00 | 0.00 | 0.00 | 52 | 1010.6 |
| 20260506112608 | 14 | 267 | 3.2 | 9.7 | 0.00 | 0.00 | 0.00 | 57 | 1010.5 |
| 20260506112038 | 13 | 344 | 8.0 | 14.5 | 0.00 | 0.00 | 0.00 | 61 | 1010.5 |
| 20260506111538 | 13 | 312 | 8.0 | 16.1 | 0.00 | 0.00 | 0.00 | 61 | 1010.6 |
| 20260506111038 | 13 | 313 | 9.7 | 11.3 | 0.00 | 0.00 | 0.00 | 61 | 1010.7 |
| 20260506110538 | 13 | 37 | 6.4 | 16.1 | 0.00 | 0.00 | 0.00 | 62 | 1010.7 |
| 20260506110039 | 13 | 354 | 9.7 | 16.1 | 0.00 | 0.00 | 0.00 | 61 | 1010.7 |
| 20260506105538 | 13 | 337 | 11.3 | 12.9 | 0.00 | 0.00 | 0.00 | 59 | 1010.6 |
| 20260506105038 | 14 | 290 | 0.0 | 6.4 | 0.00 | 0.00 | 0.00 | 57 | 1010.6 |
| 20260506104558 | 14 | 306 | 6.4 | 8.0 | 0.00 | 0.00 | 0.00 | 57 | 1010.6 |
| 20260506104038 | 14 | 190 | 3.2 | 14.5 | 0.00 | 0.00 | 0.00 | 56 | 1010.5 |
| 20260506103528 | 14 | 318 | 4.8 | 11.3 | 0.00 | 0.00 | 0.00 | 55 | 1010.5 |
| 20260506102908 | 14 | 206 | 4.8 | 8.0 | 0.00 | 0.00 | 0.00 | 53 | 1010.5 |
| 20260506102358 | 15 | 315 | 9.7 | 19.3 | 0.00 | 0.00 | 0.00 | 52 | 1010.6 |
| 20260506101838 | 15 | 195 | 4.8 | 12.9 | 0.00 | 0.00 | 0.00 | 51 | 1010.5 |
| 20260506101338 | 14 | 21 | 4.8 | 9.7 | 0.00 | 0.00 | 0.00 | 54 | 1010.5 |
| 20260506100838 | 14 | 16 | 9.7 | 16.1 | 0.00 | 0.00 | 0.00 | 57 | 1010.4 |
| 20260506100338 | 14 | 353 | 3.2 | 12.9 | 0.00 | 0.00 | 0.00 | 60 | 1010.5 |
| 20260506095858 | 15 | 309 | 9.7 | 16.1 | 0.00 | 0.00 | 0.00 | 57 | 1010.5 |
| 20260506095338 | 15 | 306 | 11.3 | 17.7 | 0.00 | 0.00 | 0.00 | 57 | 1010.5 |
| 20260506094858 | 15 | 304 | 11.3 | 11.3 | 0.00 | 0.00 | 0.00 | 58 | 1010.5 |
| 20260506094358 | 15 | 295 | 8.0 | 11.3 | 0.00 | 0.00 | 0.00 | 59 | 1010.4 |
| 20260506093808 | 14 | 147 | 4.8 | 12.9 | 0.00 | 0.00 | 0.00 | 60 | 1010.3 |
| 20260506093208 | 14 | 325 | 11.3 | 14.5 | 0.00 | 0.00 | 0.00 | 62 | 1010.4 |
| 20260506092638 | 13 | 300 | 8.0 | 12.9 | 0.00 | 0.00 | 0.00 | 65 | 1010.4 |
| 20260506092138 | 13 | 310 | 6.4 | 14.5 | 0.00 | 0.00 | 0.00 | 66 | 1010.4 |
| 20260506091658 | 13 | 288 | 9.7 | 12.9 | 0.00 | 0.00 | 0.00 | 65 | 1010.4 |
| 20260506091138 | 13 | 17 | 9.7 | 16.1 | 0.00 | 0.00 | 0.00 | 65 | 1010.3 |
| 20260506090638 | 13 | 319 | 3.2 | 6.4 | 0.00 | 0.00 | 0.00 | 66 | 1010.3 |
| 20260506090158 | 13 | 7 | 9.7 | 16.1 | 0.00 | 0.00 | 0.00 | 67 | 1010.3 |
| 20260506085638 | 13 | 20 | 6.4 | 14.5 | 0.00 | 0.00 | 0.00 | 67 | 1010.4 |
| 20260506085138 | 13 | 20 | 9.7 | 16.1 | 0.00 | 0.00 | 0.00 | 67 | 1010.3 |
| 20260506084658 | 13 | 291 | 16.1 | 22.5 | 0.00 | 0.00 | 0.00 | 67 | 1010.2 |
| 20260506084108 | 13 | 344 | 6.4 | 11.3 | 0.00 | 0.00 | 0.00 | 67 | 1010.1 |
| 20260506083509 | 13 | 309 | 19.3 | 19.3 | 0.00 | 0.00 | 0.00 | 68 | 1010.2 |
| 20260506082939 | 13 | 343 | 4.8 | 14.5 | 0.00 | 0.00 | 0.00 | 69 | 1010.2 |
| 20260506082438 | 13 | 312 | 6.4 | 12.9 | 0.00 | 0.00 | 0.00 | 69 | 1010.2 |
| 20260506081939 | 13 | 281 | 4.8 | 6.4 | 0.00 | 0.00 | 0.00 | 69 | 1010.2 |
| 20260506081438 | 12 | 340 | 6.4 | 12.9 | 0.00 | 0.00 | 0.00 | 72 | 1010.2 |
| 20260506080938 | 13 | 40 | 6.4 | 11.3 | 0.00 | 0.00 | 0.00 | 71 | 1010.2 |
| 20260506080458 | 13 | 317 | 8.0 | 9.7 | 0.00 | 0.00 | 0.00 | 71 | 1010.2 |
| 20260506073238 | 12 | 319 | 8.0 | 14.5 | 0.00 | 0.00 | 0.00 | 73 | 1010.1 |
| 20260506072738 | 12 | 334 | 9.7 | 12.9 | 0.00 | 0.00 | 0.00 | 72 | 1010.2 |
| 20260506072238 | 12 | 315 | 11.3 | 14.5 | 0.00 | 0.00 | 0.00 | 71 | 1010.1 |
| 20260506071738 | 12 | 65 | 4.8 | 6.4 | 0.00 | 0.00 | 0.00 | 73 | 1010.1 |
| 20260506071238 | 12 | 283 | 8.0 | 14.5 | 0.00 | 0.00 | 0.00 | 72 | 1010.1 |
| 20260506070738 | 12 | 278 | 4.8 | 14.5 | 0.00 | 0.00 | 0.00 | 74 | 1010.0 |
| 20260506070239 | 12 | 338 | 4.8 | 14.5 | 0.00 | 0.00 | 0.00 | 75 | 1010.0 |
| 20260506062138 | 11 | 294 | 4.8 | 8.0 | 0.00 | 0.00 | 0.00 | 80 | 1009.9 |
| 20260506061638 | 11 | 317 | 3.2 | 8.0 | 0.00 | 0.00 | 0.00 | 81 | 1009.8 |
| 20260506061138 | 11 | 320 | 4.8 | 8.0 | 0.00 | 0.00 | 0.00 | 81 | 1009.7 |
| 20260506060638 | 11 | 340 | 6.4 | 9.7 | 0.00 | 0.00 | 0.00 | 81 | 1009.7 |
| 20260506060138 | 11 | 310 | 3.2 | 11.3 | 0.00 | 0.00 | 0.00 | 82 | 1009.8 |
| 20260506051039 | 10 | 338 | 4.8 | 8.0 | 0.00 | 0.00 | 0.00 | 84 | 1009.8 |
| 20260506050539 | 10 | 331 | 6.4 | 12.9 | 0.00 | 0.00 | 0.00 | 84 | 1009.9 |
| 20260506045038 | 10 | 310 | 3.2 | 11.3 | 0.00 | 0.00 | 0.00 | 84 | 1009.9 |
| 20260506044559 | 10 | 294 | 8.0 | 11.3 | 0.00 | 0.00 | 0.00 | 84 | 1009.8 |
| 20260506044039 | 10 | 2 | 3.2 | 11.3 | 0.00 | 0.00 | 0.00 | 84 | 1009.9 |
| 20260506043539 | 10 | 321 | 6.4 | 8.0 | 0.00 | 0.00 | 0.00 | 85 | 1009.9 |
| 20260506043038 | 10 | 347 | 3.2 | 8.0 | 0.00 | 0.00 | 0.00 | 84 | 1009.8 |
| 20260506042539 | 10 | 337 | 6.4 | 11.3 | 0.00 | 0.00 | 0.00 | 84 | 1009.8 |
| 20260506042039 | 10 | 306 | 6.4 | 9.7 | 0.00 | 0.00 | 0.00 | 85 | 1009.9 |
| 20260506041538 | 10 | 341 | 6.4 | 8.0 | 0.00 | 0.00 | 0.00 | 84 | 1009.9 |
| 20260506041039 | 10 | 355 | 4.8 | 11.3 | 0.00 | 0.00 | 0.00 | 83 | 1009.9 |
| 20260506040539 | 10 | 347 | 6.4 | 8.0 | 0.00 | 0.00 | 0.00 | 82 | 1009.9 |
| 20260506040039 | 10 | 5 | 4.8 | 12.9 | 0.00 | 0.00 | 0.00 | 81 | 1009.9 |
| 20260506035600 | 10 | 316 | 4.8 | 8.0 | 0.00 | 0.00 | 0.00 | 81 | 1010.0 |
| 20260506035038 | 10 | 352 | 9.7 | 11.3 | 0.00 | 0.00 | 0.00 | 80 | 1009.9 |
| 20260506034539 | 10 | 25 | 4.8 | 11.3 | 0.00 | 0.00 | 0.00 | 80 | 1009.9 |
| 20260506034039 | 10 | 26 | 11.3 | 16.1 | 0.00 | 0.00 | 0.00 | 80 | 1010.0 |
| 20260506033539 | 10 | 316 | 6.4 | 9.7 | 0.00 | 0.00 | 0.00 | 81 | 1010.0 |
| 20260506033039 | 10 | 294 | 6.4 | 8.0 | 0.00 | 0.00 | 0.00 | 81 | 1010.0 |
| 20260506032538 | 10 | 341 | 4.8 | 6.4 | 0.00 | 0.00 | 0.00 | 82 | 1010.0 |
| 20260506032039 | 10 | 358 | 4.8 | 6.4 | 0.00 | 0.00 | 0.00 | 82 | 1010.0 |
| 20260506031539 | 10 | 319 | 3.2 | 8.0 | 0.00 | 0.00 | 0.00 | 82 | 1010.1 |
| 20260506031039 | 10 | 59 | 4.8 | 9.7 | 0.00 | 0.00 | 0.00 | 82 | 1010.1 |
| 20260506030538 | 10 | 346 | 4.8 | 8.0 | 0.00 | 0.00 | 0.00 | 82 | 1010.2 |
| 20260506030039 | 9 | 12 | 4.8 | 6.4 | 0.00 | 0.00 | 0.00 | 83 | 1010.2 |
| 20260506025539 | 9 | 339 | 3.2 | 8.0 | 0.00 | 0.00 | 0.00 | 83 | 1010.1 |
| 20260506025039 | 9 | 333 | 6.4 | 12.9 | 0.00 | 0.00 | 0.00 | 83 | 1010.3 |
| 20260506024538 | 9 | 315 | 3.2 | 4.8 | 0.00 | 0.00 | 0.00 | 83 | 1010.3 |
| 20260506024058 | 9 | 316 | 1.6 | 9.7 | 0.00 | 0.00 | 0.00 | 83 | 1010.3 |
| 20260506023539 | 9 | 323 | 3.2 | 4.8 | 0.00 | 0.00 | 0.00 | 83 | 1010.3 |
| 20260506023039 | 9 | 343 | 1.6 | 9.7 | 0.00 | 0.00 | 0.00 | 83 | 1010.3 |
| 20260506022539 | 9 | 313 | 1.6 | 4.8 | 0.00 | 0.00 | 0.00 | 83 | 1010.3 |
| 20260506022040 | 9 | 290 | 9.7 | 11.3 | 0.00 | 0.00 | 0.00 | 83 | 1010.4 |
| 20260506021539 | 9 | 318 | 6.4 | 8.0 | 0.00 | 0.00 | 0.00 | 83 | 1010.3 |
| 20260506021039 | 9 | 17 | 8.0 | 14.5 | 0.00 | 0.00 | 0.00 | 83 | 1010.4 |
| 20260506020539 | 9 | 31 | 4.8 | 6.4 | 0.00 | 0.00 | 0.00 | 83 | 1010.4 |
| 20260506020039 | 9 | 7 | 4.8 | 11.3 | 0.00 | 0.00 | 0.00 | 83 | 1010.4 |
| 20260506015539 | 9 | 321 | 3.2 | 11.3 | 0.00 | 0.00 | 0.00 | 83 | 1010.4 |
| 20260506015039 | 9 | 344 | 8.0 | 11.3 | 0.00 | 0.00 | 0.00 | 83 | 1010.5 |
| 20260506014539 | 9 | 304 | 4.8 | 14.5 | 0.00 | 0.00 | 0.00 | 83 | 1010.5 |
| 20260506014039 | 9 | 321 | 3.2 | 8.0 | 0.00 | 0.00 | 0.00 | 83 | 1010.4 |
| 20260506013539 | 9 | 327 | 4.8 | 11.3 | 0.00 | 0.00 | 0.00 | 83 | 1010.4 |
| 20260506013039 | 9 | 314 | 4.8 | 11.3 | 0.00 | 0.00 | 0.00 | 83 | 1010.4 |
| 20260506012539 | 9 | 310 | 3.2 | 8.0 | 0.00 | 0.00 | 0.00 | 83 | 1010.4 |
| 20260506012039 | 9 | 306 | 4.8 | 11.3 | 0.00 | 0.00 | 0.00 | 83 | 1010.5 |
| 20260506011539 | 9 | 332 | 12.9 | 16.1 | 0.00 | 0.00 | 0.00 | 83 | 1010.5 |
| 20260506011039 | 9 | 311 | 4.8 | 9.7 | 0.00 | 0.00 | 0.00 | 83 | 1010.5 |
| 20260506010539 | 9 | 292 | 8.0 | 11.3 | 0.00 | 0.00 | 0.00 | 83 | 1010.5 |
| 20260506010059 | 9 | 336 | 9.7 | 12.9 | 0.00 | 0.00 | 0.00 | 82 | 1010.6 |
| 20260506005559 | 9 | 318 | 9.7 | 11.3 | 0.00 | 0.00 | 0.00 | 82 | 1010.7 |
| 20260506005039 | 9 | 333 | 8.0 | 14.5 | 0.00 | 0.00 | 0.00 | 82 | 1010.7 |
| 20260506004621 | 9 | 339 | 4.8 | 14.5 | 0.00 | 0.00 | 0.00 | 82 | 1010.8 |
| 20260506004039 | 9 | 321 | 8.0 | 14.5 | 0.00 | 0.00 | 0.00 | 82 | 1010.8 |
| 20260506003539 | 9 | 330 | 4.8 | 11.3 | 0.00 | 0.00 | 0.00 | 82 | 1010.8 |
| 20260506003039 | 9 | 296 | 8.0 | 9.7 | 0.00 | 0.00 | 0.00 | 81 | 1010.8 |
| 20260506002539 | 9 | 321 | 8.0 | 9.7 | 0.00 | 0.00 | 0.00 | 81 | 1010.9 |
| 20260506002039 | 9 | 334 | 6.4 | 8.0 | 0.00 | 0.00 | 0.00 | 81 | 1011.0 |
| 20260506001539 | 9 | 36 | 6.4 | 11.3 | 0.00 | 0.00 | 0.00 | 80 | 1011.0 |
| 20260506001039 | 9 | 354 | 6.4 | 6.4 | 0.00 | 0.00 | 0.00 | 80 | 1011.0 |
| 20260506000559 | 9 | 310 | 6.4 | 6.4 | 0.00 | 0.00 | 0.00 | 80 | 1011.0 |
| 20260506000039 | 9 | 326 | 4.8 | 9.7 | 0.00 | 0.00 | 0.00 | 80 | 1011.1 |
| 20260505235539 | 9 | 356 | 3.2 | 8.0 | 0.00 | 0.00 | 0.00 | 80 | 1011.1 |
| 20260505235059 | 9 | 271 | 3.2 | 8.0 | 0.00 | 0.00 | 0.00 | 80 | 1011.1 |